Home   Weather   Ras al-Khaimah   Past weeks

Flag for United Arab Emirates Past Weather in Ras al-Khaimah, Ras al-Khaimah, United Arab Emirates — Yesterday and Last 2 Weeks

Now
91 °F

Clear.


Feels Like: 91 °F
Forecast: 79 / 100 °F
Wind: 5 mph from Northwest

Location: Ras Al Khaimah International Airport

Current Time: Apr 28, 2017 at 8:04:10 pm

Latest Report: Apr 28, 2017 at 7:00 pm


Visibility: 10 mi

Pressure: 29.77 "Hg

Humidity: 36%

Dew Point: 61 °F

Location of Ras al-KhaimahLocation

Past Weather in Ras al-Khaimah — Graph

°F

Ras al-Khaimah Temperature Yesterday

Maximum temperature yesterday: 100 °F (at 12:00 pm)
Minimum temperature yesterday: 75 °F (at 6:00 am)
Average temperature yesterday: 87 °F

High & Low Weather Summary for the Past Weeks

 TemperatureHumidityPressure
High104 °F (Apr 24, 12:00 pm)100% (Apr 18, 4:00 am)29.89 "Hg (Apr 18, 4:00 am)
Low64 °F (Apr 26, 6:00 am)6% (Apr 24, 12:00 pm)29.68 "Hg (Apr 15, 3:00 pm)
Average84 °F46%29.77 "Hg
* Reported Apr 13 7:00 pm — Apr 28 7:00 pm, Ras al-Khaimah, Weather by CustomWeather, © 2017

Note: Actual official high and low records may vary slightly from our data, if they occured in-between our weather recording intervals... More about our weather records

Advertising

Ras al-Khaimah Weather History for the Previous 24 Hours

Scroll right to see more
 ConditionsComfort  
Time TempWeatherWind HumidityBarometerVisibility
7:00 pm
Fri, Apr 28
91 °FClear.5 mph36%29.77 "Hg10 mi
6:00 pm95 °FSunny.6 mph26%29.74 "Hg10 mi
5:00 pm97 °FSunny.9 mph23%29.74 "Hg10 mi
4:00 pm97 °FSunny.12 mph27%29.74 "Hg10 mi
3:00 pm97 °FSunny.13 mph30%29.77 "Hg10 mi
2:00 pm99 °FSunny.13 mph27%29.77 "Hg10 mi
1:00 pm97 °FSunny.12 mph34%29.80 "Hg10 mi
12:00 pm100 °FSunny.5 mph33%29.80 "Hg10 mi
11:00 am100 °FSunny.2 mph24%29.83 "Hg10 mi
10:00 am93 °FSunny.3 mph39%29.83 "Hg10 mi
9:00 am88 °FClear.No wind49%29.83 "Hg5 mi
8:00 am82 °FClear.3 mph62%29.83 "Hg5 mi
7:00 am75 °FClear.No wind78%29.80 "Hg5 mi
6:00 am72 °FClear.2 mph83%29.80 "Hg4 mi
5:00 am72 °FClear.No wind88%29.80 "Hg4 mi
4:00 am72 °FClear.2 mph94%29.77 "Hg4 mi
3:00 am73 °FClear.No wind89%29.80 "Hg4 mi
2:00 am75 °FClear.2 mph89%29.80 "Hg4 mi
1:00 am77 °FClear.2 mph89%29.80 "Hg4 mi
12:00 am79 °FClear.2 mph84%29.80 "Hg5 mi
11:00 pm
Thu, Apr 27
79 °FClear.5 mph84%29.83 "Hg5 mi
10:00 pm81 °FClear.No wind70%29.83 "Hg5 mi
9:00 pm84 °FClear.No wind62%29.80 "Hg10 mi
8:00 pm86 °FClear.5 mph52%29.77 "Hg10 mi
Weather by CustomWeather, © 2017

See weather overviewHow to use our weather pages